When you browse on this site, cookies collect data to enhance your experience and personalize the content and advertising you see.
Visit our Privacy Policy to learn more. By continuing to use the site, you agree to this use of cookies and data.

Hourly Weather Quito

Today, 14 July, Tuesday

Time Temperature Precipitation Wind Pressure Humidity
00:00 +12°C° 0 mm 1 mps 621 mmHg 33%
01:00 +11°C° 0 mm 1 mps 622 mmHg 35%
02:00 +11°C° 0 mm 1 mps 621 mmHg 38%
03:00 +10°C° 0 mm 1 mps 621 mmHg 40%
04:00 +10°C° 0 mm 1 mps 621 mmHg 43%
05:00 +10°C° 0 mm 1 mps 621 mmHg 43%
06:00 +10°C° 0 mm 1 mps 622 mmHg 44%
07:00 +11°C° 0 mm 1 mps 622 mmHg 43%
08:00 +15°C° 0 mm 2 mps 623 mmHg 35%
09:00 +18°C° 0 mm 3 mps 624 mmHg 28%
10:00 +22°C° 0 mm 4 mps 625 mmHg 20%
11:00 +23°C° 0 mm 4 mps 625 mmHg 17%
12:00 +26°C° 0 mm 3 mps 624 mmHg 14%
13:00 +26°C° 0 mm 3 mps 624 mmHg 14%
14:00 +27°C° 0 mm 3 mps 624 mmHg 14%
15:00 +27°C° 0 mm 3 mps 623 mmHg 13%
16:00 +27°C° 0 mm 3 mps 623 mmHg 13%
17:00 +23°C° 0 mm 2 mps 622 mmHg 17%
18:00 +19°C° 0 mm 2 mps 622 mmHg 21%
19:00 +16°C° 0 mm 1 mps 621 mmHg 26%
20:00 +15°C° 0 mm 1 mps 621 mmHg 28%
21:00 +14°C° 0 mm 1 mps 622 mmHg 30%
22:00 +13°C° 0 mm 1 mps 622 mmHg 32%
23:00 +12°C° 0 mm 1 mps 622 mmHg 35%

Tomorrow, 15 July, Wednesday

Time Temperature Precipitation Wind Pressure Humidity
00:00 +11°C° 0 mm 1 mps 621 mmHg 37%
01:00 +10°C° 0 mm 1 mps 621 mmHg 39%
02:00 +9°C° 0 mm 1 mps 621 mmHg 40%
03:00 +9°C° 0 mm 1 mps 621 mmHg 40%
04:00 +8°C° 0 mm 1 mps 621 mmHg 41%
05:00 +8°C° 0 mm 2 mps 621 mmHg 39%
06:00 +8°C° 0 mm 2 mps 622 mmHg 38%
07:00 +8°C° 0 mm 2 mps 623 mmHg 36%
08:00 +12°C° 0 mm 3 mps 624 mmHg 29%
09:00 +15°C° 0 mm 5 mps 625 mmHg 22%
10:00 +20°C° 0 mm 6 mps 626 mmHg 15%
11:00 +21°C° 0 mm 6 mps 626 mmHg 14%
12:00 +23°C° 0 mm 5 mps 626 mmHg 13%
13:00 +26°C° 0 mm 5 mps 626 mmHg 12%
14:00 +26°C° 0 mm 5 mps 625 mmHg 12%
15:00 +26°C° 0 mm 4 mps 625 mmHg 12%
16:00 +26°C° 0 mm 4 mps 624 mmHg 13%
17:00 +21°C° 0 mm 3 mps 624 mmHg 17%
18:00 +18°C° 0 mm 2 mps 623 mmHg 21%
19:00 +15°C° 0 mm 1 mps 623 mmHg 24%
20:00 +14°C° 0 mm 2 mps 623 mmHg 26%
21:00 +13°C° 0 mm 2 mps 623 mmHg 27%
22:00 +12°C° 0 mm 2 mps 623 mmHg 28%
23:00 +10°C° 0 mm 2 mps 623 mmHg 29%

Day after tomorrow, 16 July, Thursday

Time Temperature Precipitation Wind Pressure Humidity
00:00 +9°C° 0 mm 2 mps 623 mmHg 29%
01:00 +8°C° 0 mm 2 mps 623 mmHg 30%
02:00 +8°C° 0 mm 2 mps 623 mmHg 29%
03:00 +8°C° 0 mm 2 mps 622 mmHg 29%
04:00 +8°C° 0 mm 2 mps 622 mmHg 28%
05:00 +8°C° 0 mm 2 mps 623 mmHg 27%
06:00 +8°C° 0 mm 3 mps 623 mmHg 27%
07:00 +8°C° 0 mm 3 mps 624 mmHg 26%
08:00 +11°C° 0 mm 4 mps 625 mmHg 24%
09:00 +14°C° 0 mm 4 mps 625 mmHg 21%
10:00 +17°C° 0 mm 5 mps 626 mmHg 19%
11:00 +20°C° 0 mm 5 mps 626 mmHg 18%
12:00 +22°C° 0 mm 5 mps 626 mmHg 17%
13:00 +26°C° 0 mm 5 mps 626 mmHg 17%
14:00 +26°C° 0 mm 4 mps 626 mmHg 17%
15:00 +26°C° 0 mm 4 mps 625 mmHg 17%
16:00 +26°C° 0 mm 4 mps 625 mmHg 17%
17:00 +21°C° 0 mm 3 mps 624 mmHg 22%
18:00 +18°C° 0 mm 2 mps 624 mmHg 27%
19:00 +15°C° 0 mm 1 mps 623 mmHg 33%
20:00 +14°C° 0 mm 2 mps 624 mmHg 34%
21:00 +13°C° 0 mm 2 mps 624 mmHg 36%
22:00 +12°C° 0 mm 2 mps 624 mmHg 37%
23:00 +10°C° 0 mm 2 mps 624 mmHg 39%

17 July, Friday

Time Temperature Precipitation Wind Pressure Humidity
00:00 +10°C° 0 mm 2 mps 623 mmHg 40%
01:00 +9°C° 0 mm 2 mps 623 mmHg 42%
02:00 +8°C° 0 mm 2 mps 623 mmHg 44%
03:00 +8°C° 0 mm 2 mps 623 mmHg 46%
04:00 +7°C° 0 mm 2 mps 622 mmHg 49%
05:00 +7°C° 0 mm 2 mps 623 mmHg 50%
06:00 +7°C° 0 mm 3 mps 623 mmHg 51%
07:00 +7°C° 0 mm 3 mps 623 mmHg 52%
08:00 +10°C° 0 mm 3 mps 624 mmHg 47%
09:00 +13°C° 0 mm 4 mps 625 mmHg 42%
10:00 +17°C° 0 mm 4 mps 626 mmHg 36%
11:00 +19°C° 0 mm 4 mps 626 mmHg 32%
12:00 +21°C° 0 mm 4 mps 625 mmHg 28%
13:00 +23°C° 0 mm 4 mps 625 mmHg 23%
14:00 +24°C° 0 mm 3 mps 625 mmHg 22%
15:00 +24°C° 0 mm 3 mps 624 mmHg 21%
16:00 +24°C° 0 mm 3 mps 624 mmHg 19%
17:00 +20°C° 0 mm 2 mps 623 mmHg 25%
18:00 +17°C° 0 mm 2 mps 623 mmHg 31%
19:00 +14°C° 0 mm 1 mps 622 mmHg 36%
20:00 +13°C° 0 mm 1 mps 622 mmHg 37%
21:00 +12°C° 0 mm 2 mps 622 mmHg 39%
22:00 +10°C° 0 mm 2 mps 622 mmHg 40%
23:00 +9°C° 0 mm 2 mps 622 mmHg 43%

18 July, Saturday

Time Temperature Precipitation Wind Pressure Humidity
00:00 +8°C° 0 mm 2 mps 622 mmHg 46%
01:00 +7°C° 0 mm 2 mps 622 mmHg 49%
02:00 +6°C° 0 mm 2 mps 621 mmHg 51%
03:00 +6°C° 0 mm 2 mps 621 mmHg 54%
04:00 +6°C° 0 mm 1 mps 621 mmHg 56%
05:00 +5°C° 0 mm 2 mps 622 mmHg 55%
06:00 +6°C° 0 mm 2 mps 622 mmHg 54%
07:00 +6°C° 0 mm 2 mps 623 mmHg 53%
08:00 +9°C° 0 mm 3 mps 624 mmHg 45%
09:00 +12°C° 0 mm 4 mps 625 mmHg 38%
10:00 +15°C° 0 mm 5 mps 625 mmHg 30%
11:00 +19°C° 0 mm 4 mps 625 mmHg 26%
12:00 +21°C° 0 mm 4 mps 625 mmHg 22%
13:00 +23°C° 0 mm 4 mps 625 mmHg 18%
14:00 +23°C° 0 mm 4 mps 624 mmHg 17%
15:00 +24°C° 0 mm 3 mps 624 mmHg 15%
16:00 +24°C° 0 mm 3 mps 623 mmHg 14%
17:00 +20°C° 0 mm 3 mps 623 mmHg 18%
18:00 +16°C° 0 mm 2 mps 622 mmHg 22%
19:00 +13°C° 0 mm 1 mps 622 mmHg 26%
20:00 +12°C° 0 mm 1 mps 622 mmHg 29%
21:00 +11°C° 0 mm 1 mps 622 mmHg 32%
22:00 +10°C° 0 mm 1 mps 622 mmHg 35%
23:00 +9°C° 0 mm 1 mps 622 mmHg 39%

19 July, Sunday

Time Temperature Precipitation Wind Pressure Humidity
00:00 +8°C° 0 mm 1 mps 621 mmHg 43%
01:00 +7°C° 0 mm 1 mps 621 mmHg 47%
02:00 +7°C° 0 mm 1 mps 621 mmHg 50%
03:00 +6°C° 0 mm 1 mps 621 mmHg 53%
04:00 +6°C° 0 mm 1 mps 620 mmHg 56%
05:00 +7°C° 0 mm 1 mps 621 mmHg 54%
06:00 +7°C° 0 mm 1 mps 622 mmHg 52%
07:00 +8°C° 0 mm 1 mps 623 mmHg 51%
08:00 +12°C° 0 mm 2 mps 624 mmHg 43%
09:00 +14°C° 0 mm 3 mps 624 mmHg 36%
10:00 +17°C° 0 mm 5 mps 625 mmHg 28%
11:00 +20°C° 0 mm 4 mps 625 mmHg 24%
12:00 +22°C° 0 mm 4 mps 625 mmHg 21%
13:00 +24°C° 0 mm 3 mps 625 mmHg 17%
14:00 +24°C° 0 mm 3 mps 624 mmHg 17%
15:00 +25°C° 0 mm 3 mps 624 mmHg 16%
16:00 +25°C° 0 mm 3 mps 623 mmHg 16%
17:00 +20°C° 0 mm 2 mps 623 mmHg 21%
18:00 +17°C° 0 mm 2 mps 622 mmHg 25%
19:00 +14°C° 0 mm 1 mps 621 mmHg 30%
20:00 +13°C° 0 mm 1 mps 622 mmHg 31%
21:00 +12°C° 0 mm 1 mps 622 mmHg 32%
22:00 +12°C° 0 mm 1 mps 622 mmHg 34%
23:00 +11°C° 0 mm 1 mps 622 mmHg 37%
Show more